Hatteras, NC

6:38 PM EDT on August 18, 2017 (GMT -0400)
Mitchell

Weather History for KHSE - June, 2012

Change the Weather History Date:

Tuesday, June 5, 2012

  Actual Average Record
Temperature  
Mean Temperature 67 °F 73 °F  
Max Temperature 70 °F 79 °F 92 °F (1943)
Min Temperature 63 °F 66 °F 47 °F (1988)
Degree Days  
Heating Degree Days 0 0  
Month to date heating degree days 0 0  
Since 1 June heating degree days 0 0  
Since 1 July heating degree days 1688 2584  
Cooling Degree Days 2 8  
Month to date cooling degree days 47 37  
Year to date cooling degree days 372 180  
Since 1 June cooling degree days 47 37  
Growing Degree Days 17 (Base 50)    
Moisture  
Dew Point 55 °F    
Average Humidity 67    
Maximum Humidity 73    
Minimum Humidity 61    
Precipitation  
Precipitation 0.00 in 0.12 in 1.88 in (1909)
Month to date precipitation 0.90 0.57  
Year to date precipitation 23.68 21.81  
Snow  
Snow 0.00 in - - ()
Month to date snowfall 0.0  
Since 1 July snowfall T  
Snow Depth 0.00 in    
Sea Level Pressure  
Sea Level Pressure 29.80 in    
Wind  
Wind Speed 8 mph (NE)    
Max Wind Speed 17 mph    
Max Gust Speed 26 mph    
Visibility 10 miles    
Events      
T = Trace of Precipitation, MM = Missing Value Source: NWS Daily Summary

Daily Weather History Graph

Daily Weather History Graph

Search for Another Location

Airport or City:

Trip Planner

Search our weather history database for the weather conditions in past years. The results will help you decide how hot, cold, wet, or windy it might be!

Date:

Astronomy

Jun. 05, 2012 Rise Set
Actual Time 5:47 AM EDT 8:14 PM EDT
Civil Twilight 5:18 AM EDT 8:43 PM EDT
Nautical Twilight 4:42 AM EDT 9:20 PM EDT
Astronomical Twilight 4:02 AM EDT 10:00 PM EDT
Moon 9:39 PM EDT (6/5) 6:56 AM EDT (6/5)
Length of Visible Light 15h 25m
Length of Day
14h 26m
Full, 98% of the Moon is Illuminated
Jun 5
Full
Jun 11
Last Quarter
Jun 19
New
Jun 26
First Quarter
Jul 3
Full

Hourly Weather History & Observations

Time (EDT) Temp. Dew Point Humidity Pressure Visibility Wind Dir Wind Speed Gust Speed Precip Events Conditions
12:51 AM 70.0 °F 57.0 °F 63% 29.71 in 10.0 mi NE 6.9 mph - N/A   Overcast
1:51 AM 69.1 °F 57.0 °F 65% 29.69 in 10.0 mi ENE 4.6 mph - N/A   Overcast
2:51 AM 66.9 °F 57.0 °F 70% 29.68 in 10.0 mi ENE 5.8 mph - N/A   Mostly Cloudy
3:51 AM 68.0 °F 57.0 °F 68% 29.70 in 10.0 mi Variable 5.8 mph - N/A   Overcast
4:51 AM 66.9 °F 57.0 °F 70% 29.70 in 10.0 mi ENE 5.8 mph - N/A   Overcast
5:51 AM 66.9 °F 55.9 °F 68% 29.73 in 10.0 mi NE 5.8 mph - N/A   Overcast
6:51 AM 66.9 °F 55.9 °F 68% 29.74 in 10.0 mi ENE 5.8 mph - N/A   Mostly Cloudy
7:51 AM 66.9 °F 57.0 °F 70% 29.76 in 10.0 mi ENE 6.9 mph - N/A   Overcast
8:51 AM 66.9 °F 57.0 °F 70% 29.80 in 10.0 mi ENE 5.8 mph - N/A   Overcast
9:51 AM 66.9 °F 55.9 °F 68% 29.81 in 10.0 mi ENE 6.9 mph - N/A   Overcast
10:51 AM 66.9 °F 55.0 °F 66% 29.81 in 10.0 mi Variable 6.9 mph - N/A   Overcast
11:51 AM 66.9 °F 55.0 °F 66% 29.82 in 10.0 mi ENE 9.2 mph - N/A   Overcast
12:51 PM 68.0 °F 55.0 °F 63% 29.83 in 10.0 mi ENE 9.2 mph 16.1 mph N/A   Overcast
1:51 PM 66.9 °F 55.0 °F 66% 29.83 in 10.0 mi NE 10.4 mph 17.3 mph N/A   Overcast
2:51 PM 66.0 °F 55.0 °F 68% 29.82 in 10.0 mi ENE 10.4 mph 17.3 mph N/A   Overcast
3:51 PM 68.0 °F 55.0 °F 63% 29.83 in 10.0 mi NE 10.4 mph 20.7 mph N/A   Overcast
4:51 PM 70.0 °F 55.0 °F 59% 29.84 in 10.0 mi NE 10.4 mph 21.9 mph N/A   Clear
5:51 PM 69.1 °F 55.0 °F 61% 29.85 in 10.0 mi NE 11.5 mph 19.6 mph N/A   Clear
6:05 PM - - N/A% - - North - - N/A   Unknown
6:51 PM 66.9 °F 54.0 °F 63% 29.87 in 10.0 mi NE 15.0 mph 23.0 mph N/A   Clear
7:51 PM 64.9 °F 52.0 °F 63% 29.87 in 10.0 mi NE 10.4 mph 17.3 mph N/A   Clear
8:51 PM 64.0 °F 52.0 °F 65% 29.87 in 10.0 mi NE 10.4 mph 16.1 mph N/A   Clear
9:51 PM 64.0 °F 53.1 °F 67% 29.89 in 10.0 mi NE 6.9 mph - N/A   Clear
10:51 PM 64.0 °F 51.1 °F 63% 29.91 in 10.0 mi NE 5.8 mph - N/A   Clear
11:51 PM 64.0 °F 53.1 °F 67% 29.90 in 10.0 mi ENE 5.8 mph - N/A   Clear